Year,Month,Day,Hour,Minute,Value (Times are PST for temperature in C)
2007,11,25,00,00,0.00
2007,11,25,00,01,0.00
2007,11,25,00,02,0.00
2007,11,25,00,03,0.10
2007,11,25,00,04,0.10
2007,11,25,00,05,0.10
2007,11,25,00,06,0.10
2007,11,25,00,07,0.10
2007,11,25,00,08,0.10
2007,11,25,00,09,0.10
2007,11,25,00,10,0.00
2007,11,25,00,11,0.00
2007,11,25,00,12,0.00
2007,11,25,00,13,0.00
2007,11,25,00,14,0.00
2007,11,25,00,15,0.00
2007,11,25,00,16,0.00
2007,11,25,00,17,0.00
2007,11,25,00,18,0.00
2007,11,25,00,19,0.00
2007,11,25,00,20,0.10
2007,11,25,00,21,0.10
2007,11,25,00,22,0.10
2007,11,25,00,23,0.10
2007,11,25,00,24,0.10
2007,11,25,00,25,0.00
2007,11,25,00,26,0.00
2007,11,25,00,27,0.00
2007,11,25,00,28,0.00
2007,11,25,00,29,0.00
2007,11,25,00,30,0.00
2007,11,25,00,31,0.00
2007,11,25,00,32,0.00
2007,11,25,00,33,-0.10
2007,11,25,00,34,-0.10
2007,11,25,00,35,-0.10
2007,11,25,00,36,-0.10
2007,11,25,00,37,-0.10
2007,11,25,00,38,-0.10
2007,11,25,00,39,-0.10
2007,11,25,00,40,-0.10
2007,11,25,00,41,-0.10
2007,11,25,00,42,-0.10
2007,11,25,00,43,-0.10
2007,11,25,00,44,-0.20
2007,11,25,00,45,-0.20
2007,11,25,00,46,-0.20
2007,11,25,00,47,-0.20
2007,11,25,00,48,-0.20
2007,11,25,00,49,-0.20
2007,11,25,00,50,-0.20
2007,11,25,00,51,-0.30
2007,11,25,00,52,-0.30
2007,11,25,00,53,-0.30
2007,11,25,00,54,-0.30
2007,11,25,00,55,-0.30
2007,11,25,00,56,-0.40
2007,11,25,00,57,-0.40
2007,11,25,00,58,-0.40
2007,11,25,00,59,-0.40
2007,11,25,01,00,-0.50
2007,11,25,01,01,-0.50
2007,11,25,01,02,-0.50
2007,11,25,01,03,-0.60
2007,11,25,01,04,-0.60
2007,11,25,01,05,-0.60
2007,11,25,01,06,-0.60
2007,11,25,01,07,-0.60
2007,11,25,01,08,-0.70
2007,11,25,01,09,-0.70
2007,11,25,01,10,-0.70
2007,11,25,01,11,-0.70
2007,11,25,01,12,-0.70
2007,11,25,01,13,-0.80
2007,11,25,01,14,-0.80
2007,11,25,01,15,-0.80
2007,11,25,01,16,-0.80
2007,11,25,01,17,-0.80
2007,11,25,01,18,-0.80
2007,11,25,01,19,-0.80
2007,11,25,01,20,-0.80
2007,11,25,01,21,-0.90
2007,11,25,01,22,-0.90
2007,11,25,01,23,-0.90
2007,11,25,01,24,-0.90
2007,11,25,01,25,-0.90
2007,11,25,01,26,-0.90
2007,11,25,01,27,-0.90
2007,11,25,01,28,-0.90
2007,11,25,01,29,-0.90
2007,11,25,01,30,-0.90
2007,11,25,01,31,-0.90
2007,11,25,01,32,-0.90
2007,11,25,01,33,-0.90
2007,11,25,01,34,-0.90
2007,11,25,01,35,-0.90
2007,11,25,01,36,-1.00
2007,11,25,01,37,-1.00
2007,11,25,01,38,-1.00
2007,11,25,01,39,-1.00
2007,11,25,01,40,-1.00
2007,11,25,01,41,-1.00
2007,11,25,01,42,-1.00
2007,11,25,01,43,-1.10
2007,11,25,01,44,-1.10
2007,11,25,01,45,-1.10
2007,11,25,01,46,-1.10
2007,11,25,01,47,-1.10
2007,11,25,01,48,-1.20
2007,11,25,01,49,-1.20
2007,11,25,01,50,-1.20
2007,11,25,01,51,-1.20
2007,11,25,01,52,-1.20
2007,11,25,01,53,-1.30
2007,11,25,01,54,-1.30
2007,11,25,01,55,-1.30
2007,11,25,01,56,-1.30
2007,11,25,01,57,-1.30
2007,11,25,01,58,-1.30
2007,11,25,01,59,-1.30
2007,11,25,02,00,-1.40
2007,11,25,02,01,-1.40
2007,11,25,02,02,-1.40
2007,11,25,02,03,-1.40
2007,11,25,02,04,-1.50
2007,11,25,02,05,-1.50
2007,11,25,02,06,-1.50
2007,11,25,02,07,-1.60
2007,11,25,02,08,-1.60
2007,11,25,02,09,-1.60
2007,11,25,02,10,-1.60
2007,11,25,02,11,-1.70
2007,11,25,02,12,-1.70
2007,11,25,02,13,-1.70
2007,11,25,02,14,-1.70
2007,11,25,02,15,-1.70
2007,11,25,02,16,-1.70
2007,11,25,02,17,-1.80
2007,11,25,02,18,-1.80
2007,11,25,02,19,-1.80
2007,11,25,02,20,-1.80
2007,11,25,02,21,-1.80
2007,11,25,02,22,-1.80
2007,11,25,02,23,-1.80
2007,11,25,02,24,-1.80
2007,11,25,02,25,-1.80
2007,11,25,02,26,-1.80
2007,11,25,02,27,-1.70
2007,11,25,02,28,-1.70
2007,11,25,02,29,-1.70
2007,11,25,02,30,-1.70
2007,11,25,02,31,-1.70
2007,11,25,02,32,-1.70
2007,11,25,02,33,-1.70
2007,11,25,02,34,-1.70
2007,11,25,02,35,-1.60
2007,11,25,02,36,-1.60
2007,11,25,02,37,-1.60
2007,11,25,02,38,-1.60
2007,11,25,02,39,-1.60
2007,11,25,02,40,-1.60
2007,11,25,02,41,-1.60
2007,11,25,02,42,-1.60
2007,11,25,02,43,-1.70
2007,11,25,02,44,-1.70
2007,11,25,02,45,-1.70
2007,11,25,02,46,-1.70
2007,11,25,02,47,-1.70
2007,11,25,02,48,-1.70
2007,11,25,02,49,-1.70
2007,11,25,02,50,-1.80
2007,11,25,02,51,-1.80
2007,11,25,02,52,-1.80
2007,11,25,02,53,-1.80
2007,11,25,02,54,-1.80
2007,11,25,02,55,-1.80
2007,11,25,02,56,-1.80
2007,11,25,02,57,-1.90
2007,11,25,02,58,-1.90
2007,11,25,02,59,-1.90
2007,11,25,03,00,-1.90
2007,11,25,03,01,-1.90
2007,11,25,03,02,-1.90
2007,11,25,03,03,-1.90
2007,11,25,03,04,-2.00
2007,11,25,03,05,-2.00
2007,11,25,03,06,-2.00
2007,11,25,03,07,-2.00
2007,11,25,03,08,-2.00
2007,11,25,03,09,-2.00
2007,11,25,03,10,-2.00
2007,11,25,03,11,-2.00
2007,11,25,03,12,-2.00
2007,11,25,03,13,-2.00
2007,11,25,03,14,-2.00
2007,11,25,03,15,-2.00
2007,11,25,03,16,-2.00
2007,11,25,03,17,-2.00
2007,11,25,03,18,-2.00
2007,11,25,03,19,-2.00
2007,11,25,03,20,-2.00
2007,11,25,03,21,-2.00
2007,11,25,03,22,-2.00
2007,11,25,03,23,-2.00
2007,11,25,03,24,-2.00
2007,11,25,03,25,-2.00
2007,11,25,03,26,-2.00
2007,11,25,03,27,-2.00
2007,11,25,03,28,-2.00
2007,11,25,03,29,-2.00
2007,11,25,03,30,-2.00
2007,11,25,03,31,-2.00
2007,11,25,03,32,-2.10
2007,11,25,03,33,-2.10
2007,11,25,03,34,-2.10
2007,11,25,03,35,-2.10
2007,11,25,03,36,-2.10
2007,11,25,03,37,-2.10
2007,11,25,03,38,-2.10
2007,11,25,03,39,-2.10
2007,11,25,03,40,-2.10
2007,11,25,03,41,-2.10
2007,11,25,03,42,-2.00
2007,11,25,03,43,-2.00
2007,11,25,03,44,-2.00
2007,11,25,03,45,-2.10
2007,11,25,03,46,-2.10
2007,11,25,03,47,-2.10
2007,11,25,03,48,-2.00
2007,11,25,03,49,-2.10
2007,11,25,03,50,-2.10
2007,11,25,03,51,-2.00
2007,11,25,03,52,-2.00
2007,11,25,03,53,-2.00
2007,11,25,03,54,-2.00
2007,11,25,03,55,-2.00
2007,11,25,03,56,-2.00
2007,11,25,03,57,-2.00
2007,11,25,03,58,-2.10
2007,11,25,03,59,-2.10
2007,11,25,04,00,-2.10
2007,11,25,04,01,-2.10
2007,11,25,04,02,-2.10
2007,11,25,04,03,-2.10
2007,11,25,04,04,-2.10
2007,11,25,04,05,-2.10
2007,11,25,04,06,-2.00
2007,11,25,04,07,-2.00
2007,11,25,04,08,-1.90
2007,11,25,04,09,-1.90
2007,11,25,04,10,-1.90
2007,11,25,04,11,-1.90
2007,11,25,04,12,-1.80
2007,11,25,04,13,-1.80
2007,11,25,04,14,-1.80
2007,11,25,04,15,-1.80
2007,11,25,04,16,-1.90
2007,11,25,04,17,-1.90
2007,11,25,04,18,-1.90
2007,11,25,04,19,-1.90
2007,11,25,04,20,-1.90
2007,11,25,04,21,-1.80
2007,11,25,04,22,-1.80
2007,11,25,04,23,-1.80
2007,11,25,04,24,-1.80
2007,11,25,04,25,-1.80
2007,11,25,04,26,-1.80
2007,11,25,04,27,-1.80
2007,11,25,04,28,-1.80
2007,11,25,04,29,-1.80
2007,11,25,04,30,-1.80
2007,11,25,04,31,-1.80
2007,11,25,04,32,-1.90
2007,11,25,04,33,-1.90
2007,11,25,04,34,-1.90
2007,11,25,04,35,-1.90
2007,11,25,04,36,-1.90
2007,11,25,04,37,-2.00
2007,11,25,04,38,-2.00
2007,11,25,04,39,-2.00
2007,11,25,04,40,-2.00
2007,11,25,04,41,-2.00
2007,11,25,04,42,-2.00
2007,11,25,04,43,-2.00
2007,11,25,04,44,-2.00
2007,11,25,04,45,-2.00
2007,11,25,04,46,-2.00
2007,11,25,04,47,-2.00
2007,11,25,04,48,-2.00
2007,11,25,04,49,-2.00
2007,11,25,04,50,-2.00
2007,11,25,04,51,-2.00
2007,11,25,04,52,-2.00
2007,11,25,04,53,-2.00
2007,11,25,04,54,-2.10
2007,11,25,04,55,-2.10
2007,11,25,04,56,-2.10
2007,11,25,04,57,-2.10
2007,11,25,04,58,-2.20
2007,11,25,04,59,-2.20
2007,11,25,05,00,-2.20
2007,11,25,05,01,-2.20
2007,11,25,05,02,-2.20
2007,11,25,05,03,-2.20
2007,11,25,05,04,-2.20
2007,11,25,05,05,-2.30
2007,11,25,05,06,-2.30
2007,11,25,05,07,-2.30
2007,11,25,05,08,-2.30
2007,11,25,05,09,-2.30
2007,11,25,05,10,-2.30
2007,11,25,05,11,-2.30
2007,11,25,05,12,-2.30
2007,11,25,05,13,-2.30
2007,11,25,05,14,-2.30
2007,11,25,05,15,-2.30
2007,11,25,05,16,-2.30
2007,11,25,05,17,-2.30
2007,11,25,05,18,-2.30
2007,11,25,05,19,-2.40
2007,11,25,05,20,-2.40
2007,11,25,05,21,-2.40
2007,11,25,05,22,-2.40
2007,11,25,05,23,-2.40
2007,11,25,05,24,-2.40
2007,11,25,05,25,-2.40
2007,11,25,05,26,-2.30
2007,11,25,05,27,-2.30
2007,11,25,05,28,-2.30
2007,11,25,05,29,-2.30
2007,11,25,05,30,-2.30
2007,11,25,05,31,-2.30
2007,11,25,05,32,-2.30
2007,11,25,05,33,-2.30
2007,11,25,05,34,-2.30
2007,11,25,05,35,-2.30
2007,11,25,05,36,-2.30
2007,11,25,05,37,-2.30
2007,11,25,05,38,-2.30
2007,11,25,05,39,-2.30
2007,11,25,05,40,-2.30
2007,11,25,05,41,-2.40
2007,11,25,05,42,-2.40
2007,11,25,05,43,-2.40
2007,11,25,05,44,-2.40
2007,11,25,05,45,-2.40
2007,11,25,05,46,-2.40
2007,11,25,05,47,-2.40
2007,11,25,05,48,-2.40
2007,11,25,05,49,-2.50
2007,11,25,05,50,-2.50
2007,11,25,05,51,-2.50
2007,11,25,05,52,-2.50
2007,11,25,05,53,-2.50
2007,11,25,05,54,-2.50
2007,11,25,05,55,-2.60
2007,11,25,05,56,-2.50
2007,11,25,05,57,-2.50
2007,11,25,05,58,-2.50
2007,11,25,05,59,-2.50
2007,11,25,06,00,-2.50
2007,11,25,06,01,-2.50
2007,11,25,06,02,-2.50
2007,11,25,06,03,-2.50
2007,11,25,06,04,-2.50
2007,11,25,06,05,-2.50
2007,11,25,06,06,-2.50
2007,11,25,06,07,-2.50
2007,11,25,06,08,-2.50
2007,11,25,06,09,-2.60
2007,11,25,06,10,-2.60
2007,11,25,06,11,-2.60
2007,11,25,06,12,-2.60
2007,11,25,06,13,-2.60
2007,11,25,06,14,-2.60
2007,11,25,06,15,-2.60
2007,11,25,06,16,-2.60
2007,11,25,06,17,-2.60
2007,11,25,06,18,-2.60
2007,11,25,06,19,-2.60
2007,11,25,06,20,-2.60
2007,11,25,06,21,-2.60
2007,11,25,06,22,-2.60
2007,11,25,06,23,-2.60
2007,11,25,06,24,-2.50
2007,11,25,06,25,-2.50
2007,11,25,06,26,-2.50
2007,11,25,06,27,-2.50
2007,11,25,06,28,-2.50
2007,11,25,06,29,-2.50
2007,11,25,06,30,-2.50
2007,11,25,06,31,-2.60
2007,11,25,06,32,-2.60
2007,11,25,06,33,-2.60
2007,11,25,06,34,-2.60
2007,11,25,06,35,-2.60
2007,11,25,06,36,-2.60
2007,11,25,06,37,-2.60
2007,11,25,06,38,-2.70
2007,11,25,06,39,-2.70
2007,11,25,06,40,-2.70
2007,11,25,06,41,-2.60
2007,11,25,06,42,-2.60
2007,11,25,06,43,-2.60
2007,11,25,06,44,-2.60
2007,11,25,06,45,-2.50
2007,11,25,06,46,-2.50
2007,11,25,06,47,-2.50
2007,11,25,06,48,-2.50
2007,11,25,06,49,-2.50
2007,11,25,06,50,-2.50
2007,11,25,06,51,-2.50
2007,11,25,06,52,-2.50
2007,11,25,06,53,-2.50
2007,11,25,06,54,-2.50
2007,11,25,06,55,-2.50
2007,11,25,06,56,-2.50
2007,11,25,06,57,-2.40
2007,11,25,06,58,-2.50
2007,11,25,06,59,-2.50
2007,11,25,07,00,-2.50
2007,11,25,07,01,-2.50
2007,11,25,07,02,-2.50
2007,11,25,07,03,-2.50
2007,11,25,07,04,-2.50
2007,11,25,07,05,-2.60
2007,11,25,07,06,-2.60
2007,11,25,07,07,-2.60
2007,11,25,07,08,-2.60
2007,11,25,07,09,-2.60
2007,11,25,07,10,-2.60
2007,11,25,07,11,-2.70
2007,11,25,07,12,-2.70
2007,11,25,07,13,-2.70
2007,11,25,07,14,-2.70
2007,11,25,07,15,-2.70
2007,11,25,07,16,-2.70
2007,11,25,07,17,-2.70
2007,11,25,07,18,-2.70
2007,11,25,07,19,-2.70
2007,11,25,07,20,-2.70
2007,11,25,07,21,-2.70
2007,11,25,07,22,-2.70
2007,11,25,07,23,-2.70
2007,11,25,07,24,-2.70
2007,11,25,07,25,-2.70
2007,11,25,07,26,-2.70
2007,11,25,07,27,-2.70
2007,11,25,07,28,-2.70
2007,11,25,07,29,-2.70
2007,11,25,07,30,-2.70
2007,11,25,07,31,-2.70
2007,11,25,07,32,-2.70
2007,11,25,07,33,-2.70
2007,11,25,07,34,-2.70
2007,11,25,07,35,-2.70
2007,11,25,07,36,-2.70
2007,11,25,07,37,-2.60
2007,11,25,07,38,-2.60
2007,11,25,07,39,-2.60
2007,11,25,07,40,-2.60
2007,11,25,07,41,-2.60
2007,11,25,07,42,-2.60
2007,11,25,07,43,-2.60
2007,11,25,07,44,-2.60
2007,11,25,07,45,-2.70
2007,11,25,07,46,-2.70
2007,11,25,07,47,-2.70
2007,11,25,07,48,-2.70
2007,11,25,07,49,-2.70
2007,11,25,07,50,-2.70
2007,11,25,07,51,-2.70
2007,11,25,07,52,-2.70
2007,11,25,07,53,-2.70
2007,11,25,07,54,-2.70
2007,11,25,07,55,-2.70
2007,11,25,07,56,-2.70
2007,11,25,07,57,-2.60
2007,11,25,07,58,-2.60
2007,11,25,07,59,-2.60
2007,11,25,08,00,-2.60
2007,11,25,08,01,-2.60
2007,11,25,08,02,-2.60
2007,11,25,08,03,-2.60
2007,11,25,08,04,-2.60
2007,11,25,08,05,-2.60
2007,11,25,08,06,-2.60
2007,11,25,08,07,-2.60
2007,11,25,08,08,-2.60
2007,11,25,08,09,-2.60
2007,11,25,08,10,-2.70
2007,11,25,08,11,-2.70
2007,11,25,08,12,-2.70
2007,11,25,08,13,-2.70
2007,11,25,08,14,-2.70
2007,11,25,08,15,-2.60
2007,11,25,08,16,-2.60
2007,11,25,08,17,-2.60
2007,11,25,08,18,-2.60
2007,11,25,08,19,-2.60
2007,11,25,08,20,-2.50
2007,11,25,08,21,-2.50
2007,11,25,08,22,-2.50
2007,11,25,08,23,-2.50
2007,11,25,08,24,-2.50
2007,11,25,08,25,-2.50
2007,11,25,08,26,-2.50
2007,11,25,08,27,-2.50
2007,11,25,08,28,-2.50
2007,11,25,08,29,-2.50
2007,11,25,08,30,-2.60
2007,11,25,08,31,-2.60
2007,11,25,08,32,-2.60
2007,11,25,08,33,-2.50
2007,11,25,08,34,-2.50
2007,11,25,08,35,-2.50
2007,11,25,08,36,-2.50
2007,11,25,08,37,-2.40
2007,11,25,08,38,-2.40
2007,11,25,08,39,-2.40
2007,11,25,08,40,-2.40
2007,11,25,08,41,-2.40
2007,11,25,08,42,-2.30
2007,11,25,08,43,-2.30
2007,11,25,08,44,-2.30
2007,11,25,08,45,-2.30
2007,11,25,08,46,-2.30
2007,11,25,08,47,-2.30
2007,11,25,08,48,-2.30
2007,11,25,08,49,-2.30
2007,11,25,08,50,-2.30
2007,11,25,08,51,-2.30
2007,11,25,08,52,-2.30
2007,11,25,08,53,-2.30
2007,11,25,08,54,-2.20
2007,11,25,08,55,-2.20
2007,11,25,08,56,-2.20
2007,11,25,08,57,-2.20
2007,11,25,08,58,-2.20
2007,11,25,08,59,-2.20
2007,11,25,09,00,-2.20
2007,11,25,09,01,-2.10
2007,11,25,09,02,-2.10
2007,11,25,09,03,-2.10
2007,11,25,09,04,-2.10
2007,11,25,09,05,-2.10
2007,11,25,09,06,-2.00
2007,11,25,09,07,-2.00
2007,11,25,09,08,-1.90
2007,11,25,09,09,-1.90
2007,11,25,09,10,-1.90
2007,11,25,09,11,-1.90
2007,11,25,09,12,-1.80
2007,11,25,09,13,-1.80
2007,11,25,09,14,-1.80
2007,11,25,09,15,-1.80
2007,11,25,09,16,-1.70
2007,11,25,09,17,-1.70
2007,11,25,09,18,-1.70
2007,11,25,09,19,-1.60
2007,11,25,09,20,-1.60
2007,11,25,09,21,-1.60
2007,11,25,09,22,-1.50
2007,11,25,09,23,-1.50
2007,11,25,09,24,-1.40
2007,11,25,09,25,-1.40
2007,11,25,09,26,-1.30
2007,11,25,09,27,-1.30
2007,11,25,09,28,-1.30
2007,11,25,09,29,-1.20
2007,11,25,09,30,-1.20
2007,11,25,09,31,-1.10
2007,11,25,09,32,-1.10
2007,11,25,09,33,-1.10
2007,11,25,09,34,-1.10
2007,11,25,09,35,-1.00
2007,11,25,09,36,-0.90
2007,11,25,09,37,-0.90
2007,11,25,09,38,-0.90
2007,11,25,09,39,-0.80
2007,11,25,09,40,-0.80
2007,11,25,09,41,-0.70
2007,11,25,09,42,-0.70
2007,11,25,09,43,-0.60
2007,11,25,09,44,-0.60
2007,11,25,09,45,-0.50
2007,11,25,09,46,-0.50
2007,11,25,09,47,-0.50
2007,11,25,09,48,-0.40
2007,11,25,09,49,-0.40
2007,11,25,09,50,-0.40
2007,11,25,09,51,-0.30
2007,11,25,09,52,-0.30
2007,11,25,09,53,-0.30
2007,11,25,09,54,-0.20
2007,11,25,09,55,-0.20
2007,11,25,09,56,-0.20
2007,11,25,09,57,-0.20
2007,11,25,09,58,-0.10
2007,11,25,09,59,-0.10
2007,11,25,10,00,-0.10
2007,11,25,10,01,0.00
2007,11,25,10,02,0.00
2007,11,25,10,03,0.10
2007,11,25,10,04,0.10
2007,11,25,10,05,0.10
2007,11,25,10,06,0.20
2007,11,25,10,07,0.30
2007,11,25,10,08,0.30
2007,11,25,10,09,0.40
2007,11,25,10,10,0.50
2007,11,25,10,11,0.60
2007,11,25,10,12,0.70
2007,11,25,10,13,0.80
2007,11,25,10,14,0.90
2007,11,25,10,15,1.10
2007,11,25,10,16,1.20
2007,11,25,10,17,1.30
2007,11,25,10,18,1.30
2007,11,25,10,19,1.40
2007,11,25,10,20,1.50
2007,11,25,10,21,1.60
2007,11,25,10,22,1.60
2007,11,25,10,23,1.70
2007,11,25,10,24,1.80
2007,11,25,10,25,1.80
2007,11,25,10,26,1.90
2007,11,25,10,27,2.00
2007,11,25,10,28,2.10
2007,11,25,10,29,2.20
2007,11,25,10,30,2.20
2007,11,25,10,31,2.30
2007,11,25,10,32,2.40
2007,11,25,10,33,2.50
2007,11,25,10,34,2.60
2007,11,25,10,35,2.70
2007,11,25,10,36,2.80
2007,11,25,10,37,2.90
2007,11,25,10,38,3.10
2007,11,25,10,39,3.20
2007,11,25,10,40,3.30
2007,11,25,10,41,3.40
2007,11,25,10,42,3.50
2007,11,25,10,43,3.60
2007,11,25,10,44,3.70
2007,11,25,10,45,3.80
2007,11,25,10,46,3.90
2007,11,25,10,47,4.00
2007,11,25,10,48,4.10
2007,11,25,10,49,4.30
2007,11,25,10,50,4.40
2007,11,25,10,51,4.50
2007,11,25,10,52,4.50
2007,11,25,10,53,4.60
2007,11,25,10,54,4.70
2007,11,25,10,55,4.80
2007,11,25,10,56,4.80
2007,11,25,10,57,4.90
2007,11,25,10,58,5.00
2007,11,25,10,59,5.00
2007,11,25,11,00,4.90
2007,11,25,11,01,4.90
2007,11,25,11,02,4.90
2007,11,25,11,03,4.90
2007,11,25,11,04,4.90
2007,11,25,11,05,4.90
2007,11,25,11,06,4.80
2007,11,25,11,07,4.80
2007,11,25,11,08,4.80
2007,11,25,11,09,4.80
2007,11,25,11,10,4.90
2007,11,25,11,11,5.00
2007,11,25,11,12,5.00
2007,11,25,11,13,5.10
2007,11,25,11,14,5.20
2007,11,25,11,15,5.20
2007,11,25,11,16,5.30
2007,11,25,11,17,5.30
2007,11,25,11,18,5.40
2007,11,25,11,19,5.50
2007,11,25,11,20,5.50
2007,11,25,11,21,5.60
2007,11,25,11,22,5.60
2007,11,25,11,23,5.70
2007,11,25,11,24,5.70
2007,11,25,11,25,5.70
2007,11,25,11,26,5.80
2007,11,25,11,27,5.80
2007,11,25,11,28,5.80
2007,11,25,11,29,5.80
2007,11,25,11,30,5.90
2007,11,25,11,31,5.90
2007,11,25,11,32,5.90
2007,11,25,11,33,6.00
2007,11,25,11,34,6.10
2007,11,25,11,35,6.20
2007,11,25,11,36,6.20
2007,11,25,11,37,6.30
2007,11,25,11,38,6.30
2007,11,25,11,39,6.40
2007,11,25,11,40,6.40
2007,11,25,11,41,6.40
2007,11,25,11,42,6.50
2007,11,25,11,43,6.50
2007,11,25,11,44,6.60
2007,11,25,11,45,6.60
2007,11,25,11,46,6.70
2007,11,25,11,47,6.80
2007,11,25,11,48,6.90
2007,11,25,11,49,7.00
2007,11,25,11,50,7.00
2007,11,25,11,51,6.90
2007,11,25,11,52,6.80
2007,11,25,11,53,6.70
2007,11,25,11,54,6.70
2007,11,25,11,55,6.70
2007,11,25,11,56,6.80
2007,11,25,11,57,6.90
2007,11,25,11,58,6.90
2007,11,25,11,59,6.90
2007,11,25,12,00,6.90
2007,11,25,12,01,6.90
2007,11,25,12,02,6.80
2007,11,25,12,03,6.80
2007,11,25,12,04,6.80
2007,11,25,12,05,6.90
2007,11,25,12,06,6.90
2007,11,25,12,07,7.00
2007,11,25,12,08,7.00
2007,11,25,12,09,7.10
2007,11,25,12,10,7.10
2007,11,25,12,11,7.10
2007,11,25,12,12,7.10
2007,11,25,12,13,7.20
2007,11,25,12,14,7.20
2007,11,25,12,15,7.20
2007,11,25,12,16,7.30
2007,11,25,12,17,7.40
2007,11,25,12,18,7.50
2007,11,25,12,19,7.50
2007,11,25,12,20,7.40
2007,11,25,12,21,7.40
2007,11,25,12,22,7.40
2007,11,25,12,23,7.30
2007,11,25,12,24,7.40
2007,11,25,12,25,7.40
2007,11,25,12,26,7.50
2007,11,25,12,27,7.60
2007,11,25,12,28,7.50
2007,11,25,12,29,7.50
2007,11,25,12,30,7.50
2007,11,25,12,31,7.50
2007,11,25,12,32,7.60
2007,11,25,12,33,7.50
2007,11,25,12,34,7.50
2007,11,25,12,35,7.50
2007,11,25,12,36,7.50
2007,11,25,12,37,7.50
2007,11,25,12,38,7.40
2007,11,25,12,39,7.40
2007,11,25,12,40,7.40
2007,11,25,12,41,7.40
2007,11,25,12,42,7.30
2007,11,25,12,43,7.30
2007,11,25,12,44,7.30
2007,11,25,12,45,7.30
2007,11,25,12,46,7.20
2007,11,25,12,47,7.20
2007,11,25,12,48,7.20
2007,11,25,12,49,7.10
2007,11,25,12,50,7.00
2007,11,25,12,51,7.00
2007,11,25,12,52,7.00
2007,11,25,12,53,6.90
2007,11,25,12,54,6.90
2007,11,25,12,55,6.90
2007,11,25,12,56,6.90
2007,11,25,12,57,6.90
2007,11,25,12,58,6.90
2007,11,25,12,59,6.90
2007,11,25,13,00,6.90
2007,11,25,13,01,7.00
2007,11,25,13,02,7.00
2007,11,25,13,03,7.00
2007,11,25,13,04,7.00
2007,11,25,13,05,7.00
2007,11,25,13,06,7.00
2007,11,25,13,07,6.90
2007,11,25,13,08,6.90
2007,11,25,13,09,6.90
2007,11,25,13,10,6.90
2007,11,25,13,11,6.80
2007,11,25,13,12,6.80
2007,11,25,13,13,6.80
2007,11,25,13,14,6.70
2007,11,25,13,15,6.70
2007,11,25,13,16,6.70
2007,11,25,13,17,6.70
2007,11,25,13,18,6.70
2007,11,25,13,19,6.70
2007,11,25,13,20,6.70
2007,11,25,13,21,6.70
2007,11,25,13,22,6.70
2007,11,25,13,23,6.80
2007,11,25,13,24,6.80
2007,11,25,13,25,6.80
2007,11,25,13,26,6.80
2007,11,25,13,27,6.80
2007,11,25,13,28,6.80
2007,11,25,13,29,6.80
2007,11,25,13,30,6.80
2007,11,25,13,31,6.80
2007,11,25,13,32,6.80
2007,11,25,13,33,6.80
2007,11,25,13,34,6.80
2007,11,25,13,35,6.80
2007,11,25,13,36,6.80
2007,11,25,13,37,6.80
2007,11,25,13,38,6.80
2007,11,25,13,39,6.80
2007,11,25,13,40,6.80
2007,11,25,13,41,6.70
2007,11,25,13,42,6.70
2007,11,25,13,43,6.70
2007,11,25,13,44,6.70
2007,11,25,13,45,6.70
2007,11,25,13,46,6.70
2007,11,25,13,47,6.80
2007,11,25,13,48,6.80
2007,11,25,13,49,6.80
2007,11,25,13,50,6.90
2007,11,25,13,51,6.90
2007,11,25,13,52,6.90
2007,11,25,13,53,6.90
2007,11,25,13,54,7.00
2007,11,25,13,55,7.10
2007,11,25,13,56,7.10
2007,11,25,13,57,7.20
2007,11,25,13,58,7.20
2007,11,25,13,59,7.20
2007,11,25,14,00,7.20
2007,11,25,14,01,7.30
2007,11,25,14,02,7.30
2007,11,25,14,03,7.30
2007,11,25,14,04,7.30
2007,11,25,14,05,7.20
2007,11,25,14,06,7.20
2007,11,25,14,07,7.20
2007,11,25,14,08,7.30
2007,11,25,14,09,7.20
2007,11,25,14,10,7.20
2007,11,25,14,11,7.20
2007,11,25,14,12,7.20
2007,11,25,14,13,7.10
2007,11,25,14,14,7.10
2007,11,25,14,15,7.10
2007,11,25,14,16,7.20
2007,11,25,14,17,7.20
2007,11,25,14,18,7.10
2007,11,25,14,19,7.10
2007,11,25,14,20,7.10
2007,11,25,14,21,7.20
2007,11,25,14,22,7.20
2007,11,25,14,23,7.20
2007,11,25,14,24,7.30
2007,11,25,14,25,7.30
2007,11,25,14,26,7.40
2007,11,25,14,27,7.40
2007,11,25,14,28,7.40
2007,11,25,14,29,7.50
2007,11,25,14,30,7.60
2007,11,25,14,31,7.60
2007,11,25,14,32,7.70
2007,11,25,14,33,7.70
2007,11,25,14,34,7.70
2007,11,25,14,35,7.80
2007,11,25,14,36,7.80
2007,11,25,14,37,7.80
2007,11,25,14,38,7.90
2007,11,25,14,39,7.90
2007,11,25,14,40,7.90
2007,11,25,14,41,7.90
2007,11,25,14,42,7.80
2007,11,25,14,43,7.80
2007,11,25,14,44,7.70
2007,11,25,14,45,7.70
2007,11,25,14,46,7.70
2007,11,25,14,47,7.60
2007,11,25,14,48,7.60
2007,11,25,14,49,7.50
2007,11,25,14,50,7.40
2007,11,25,14,51,7.40
2007,11,25,14,52,7.40
2007,11,25,14,53,7.30
2007,11,25,14,54,7.30
2007,11,25,14,55,7.30
2007,11,25,14,56,7.20
2007,11,25,14,57,7.20
2007,11,25,14,58,7.20
2007,11,25,14,59,7.20
2007,11,25,15,00,7.30
2007,11,25,15,01,7.30
2007,11,25,15,02,7.30
2007,11,25,15,03,7.30
2007,11,25,15,04,7.30
2007,11,25,15,05,7.30
2007,11,25,15,06,7.30
2007,11,25,15,07,7.30
2007,11,25,15,08,7.30
2007,11,25,15,09,7.30
2007,11,25,15,10,7.20
2007,11,25,15,11,7.10
2007,11,25,15,12,7.00
2007,11,25,15,13,6.90
2007,11,25,15,14,6.90
2007,11,25,15,15,6.80
2007,11,25,15,16,6.80
2007,11,25,15,17,6.70
2007,11,25,15,18,6.60
2007,11,25,15,19,6.60
2007,11,25,15,20,6.60
2007,11,25,15,21,6.60
2007,11,25,15,22,6.60
2007,11,25,15,23,6.60
2007,11,25,15,24,6.60
2007,11,25,15,25,6.60
2007,11,25,15,26,6.60
2007,11,25,15,27,6.60
2007,11,25,15,28,6.60
2007,11,25,15,29,6.60
2007,11,25,15,30,6.60
2007,11,25,15,31,6.70
2007,11,25,15,32,6.70
2007,11,25,15,33,6.70
2007,11,25,15,34,6.60
2007,11,25,15,35,6.60
2007,11,25,15,36,6.60
2007,11,25,15,37,6.60
2007,11,25,15,38,6.60
2007,11,25,15,39,6.50
2007,11,25,15,40,6.50
2007,11,25,15,41,6.50
2007,11,25,15,42,6.40
2007,11,25,15,43,6.40
2007,11,25,15,44,6.40
2007,11,25,15,45,6.40
2007,11,25,15,46,6.40
2007,11,25,15,47,6.40
2007,11,25,15,48,6.30
2007,11,25,15,49,6.30
2007,11,25,15,50,6.30
2007,11,25,15,51,6.30
2007,11,25,15,52,6.20
2007,11,25,15,53,6.20
2007,11,25,15,54,6.20
2007,11,25,15,55,6.10
2007,11,25,15,56,6.10
2007,11,25,15,57,6.10
2007,11,25,15,58,6.00
2007,11,25,15,59,5.90
2007,11,25,16,00,5.90
2007,11,25,16,01,5.80
2007,11,25,16,02,5.80
2007,11,25,16,03,5.70
2007,11,25,16,04,5.70
2007,11,25,16,05,5.60
2007,11,25,16,06,5.60
2007,11,25,16,07,5.50
2007,11,25,16,08,5.40
2007,11,25,16,09,5.40
2007,11,25,16,10,5.30
2007,11,25,16,11,5.20
2007,11,25,16,12,5.20
2007,11,25,16,13,5.10
2007,11,25,16,14,5.10
2007,11,25,16,15,5.00
2007,11,25,16,16,5.00
2007,11,25,16,17,4.90
2007,11,25,16,18,4.80
2007,11,25,16,19,4.80
2007,11,25,16,20,4.70
2007,11,25,16,21,4.70
2007,11,25,16,22,4.70
2007,11,25,16,23,4.70
2007,11,25,16,24,4.70
2007,11,25,16,25,4.70
2007,11,25,16,26,4.60
2007,11,25,16,27,4.40
2007,11,25,16,28,4.40
2007,11,25,16,29,4.30
2007,11,25,16,30,4.30
2007,11,25,16,31,4.20
2007,11,25,16,32,4.20
2007,11,25,16,33,4.10
2007,11,25,16,34,4.10
2007,11,25,16,35,4.10
2007,11,25,16,36,4.00
2007,11,25,16,37,3.90
2007,11,25,16,38,3.90
2007,11,25,16,39,3.80
2007,11,25,16,40,3.70
2007,11,25,16,41,3.70
2007,11,25,16,42,3.60
2007,11,25,16,43,3.50
2007,11,25,16,44,3.50
2007,11,25,16,45,3.40
2007,11,25,16,46,3.40
2007,11,25,16,47,3.30
2007,11,25,16,48,3.30
2007,11,25,16,49,3.20
2007,11,25,16,50,3.20
2007,11,25,16,51,3.10
2007,11,25,16,52,3.10
2007,11,25,16,53,3.00
2007,11,25,16,54,3.00
2007,11,25,16,55,2.90
2007,11,25,16,56,2.90
2007,11,25,16,57,2.80
2007,11,25,16,58,2.80
2007,11,25,16,59,2.80
2007,11,25,17,00,2.70
2007,11,25,17,01,2.70
2007,11,25,17,02,2.60
2007,11,25,17,03,2.60
2007,11,25,17,04,2.60
2007,11,25,17,05,2.50
2007,11,25,17,06,2.50
2007,11,25,17,07,2.40
2007,11,25,17,08,2.40
2007,11,25,17,09,2.40
2007,11,25,17,10,2.30
2007,11,25,17,11,2.30
2007,11,25,17,12,2.30
2007,11,25,17,13,2.30
2007,11,25,17,14,2.20
2007,11,25,17,15,2.20
2007,11,25,17,16,2.20
2007,11,25,17,17,2.20
2007,11,25,17,18,2.10
2007,11,25,17,19,2.10
2007,11,25,17,20,2.10
2007,11,25,17,21,2.10
2007,11,25,17,22,2.00
2007,11,25,17,23,2.00
2007,11,25,17,24,2.00
2007,11,25,17,25,2.00
2007,11,25,17,26,2.00
2007,11,25,17,27,2.00
2007,11,25,17,28,2.00
2007,11,25,17,29,2.00
2007,11,25,17,30,2.00
2007,11,25,17,31,2.00
2007,11,25,17,32,2.00
2007,11,25,17,33,2.00
2007,11,25,17,34,2.00
2007,11,25,17,35,2.00
2007,11,25,17,36,2.00
2007,11,25,17,37,2.00
2007,11,25,17,38,2.00
2007,11,25,17,39,2.00
2007,11,25,17,40,1.90